Weather History for New Delhi, India

Change the Weather History Date:

Saturday, March 8, 2014

  Actual Average Record
Temperature  
Mean Temperature 66 °F -  
Max Temperature 78 °F 86 °F 91 °F (2006)
Min Temperature 53 °F 62 °F 50 °F (2007)
Growing Degree Days 16 (Base 50)    
Moisture  
Dew Point 51 °F    
Average Humidity 58    
Maximum Humidity 94    
Minimum Humidity 32    
Precipitation  
Precipitation 0.00 in - - ()
Sea Level Pressure  
Sea Level Pressure 30.05 in    
Wind  
Wind Speed 5 mph ()    
Max Wind Speed 14 mph    
Max Gust Speed -    
Visibility 2.1 miles    
Events Fog    
Averages and records for this station are not official NWS values.
T = Trace of Precipitation, MM = Missing Value Source: Averaged Metar Reports

Daily Weather History Graph

Daily Weather History Graph

Search for Another Location

Airport:

Trip Planner

Search our weather history database for the weather conditions in past years. The results will help you decide how hot, cold, wet, or windy it might be!

Date:

Astronomy

Mar. 08, 2014 Rise Set
Actual Time 6:39 AM IST 6:25 PM IST
Civil Twilight 6:15 AM IST 6:49 PM IST
Nautical Twilight 5:48 AM IST 7:16 PM IST
Astronomical Twilight 5:21 AM IST 7:43 PM IST
Moon 11:27 AM IST (3/8) 12:30 AM IST (3/8)
Length of Visible Light 12h 33m
Length of Day
11h 46m
Waxing Crescent, 47% of the Moon is Illuminated
Mar 8
Waxing Crescent
Mar 8
First Quarter
Mar 16
Full
Mar 24
Last Quarter
Mar 31
New

Hourly Weather History & Observations

Time (IST) Temp. Dew Point Humidity Pressure Visibility Wind Dir Wind Speed Gust Speed Precip Events Conditions
12:00 AM 62.6 °F 51.8 °F 68% 30.04 in 1.6 mi WNW 5.8 mph - N/A   Haze
12:30 AM 62.6 °F 51.8 °F 68% 30.04 in 1.6 mi Calm Calm - N/A   Haze
1:00 AM 60.8 °F 51.8 °F 72% 30.04 in 1.6 mi Calm Calm - N/A   Haze
1:30 AM 60.8 °F 51.8 °F 72% 30.04 in 1.6 mi Calm Calm - N/A   Haze
2:00 AM 59.0 °F 51.8 °F 77% 30.04 in 1.2 mi Calm Calm - N/A   Mist
2:30 AM 59.0 °F 51.8 °F 77% 30.04 in 1.2 mi West 5.8 mph - N/A   Mist
3:00 AM 59.0 °F 51.8 °F 77% 30.04 in 1.2 mi West 4.6 mph - N/A   Mist
3:30 AM 57.2 °F 51.8 °F 82% 30.04 in 1.0 mi West 5.8 mph - N/A   Mist
4:30 AM 55.4 °F 51.8 °F 88% 30.04 in 0.6 mi WSW 2.3 mph - N/A   Mist
5:30 AM 55.4 °F 51.8 °F 88% 30.06 in 0.6 mi Calm Calm - N/A   Mist
6:00 AM 55.4 °F 51.8 °F 88% 30.06 in 0.6 mi Calm Calm - N/A   Mist
6:30 AM 53.6 °F 51.8 °F 94% 30.06 in 0.6 mi West 3.5 mph - N/A   Mist
7:00 AM 53.6 °F 50.0 °F 88% 30.06 in 0.6 mi West 2.3 mph - N/A Fog Shallow Fog
9:00 AM 62.6 °F 51.8 °F 68% 30.12 in 1.0 mi West 8.1 mph - N/A   Smoke
10:00 AM 69.8 °F 51.8 °F 53% 30.12 in 1.7 mi WNW 9.2 mph - N/A   Haze
11:00 AM 73.4 °F 48.2 °F 41% 30.12 in - WNW 10.4 mph - N/A   Haze
11:30 AM 75.2 °F 46.4 °F 36% 30.12 in - West 10.4 mph - N/A   Haze
12:00 PM 75.2 °F 46.4 °F 36% 30.12 in 2.8 mi WNW 10.4 mph - N/A   Haze
12:30 PM 77.0 °F 46.4 °F 34% 30.12 in 2.8 mi West 11.5 mph - N/A   Haze
1:00 PM 77.0 °F 46.4 °F 34% 30.09 in 2.8 mi West 12.7 mph - N/A   Haze
2:00 PM 78.8 °F 46.4 °F 32% 30.04 in 3.1 mi NW 13.8 mph - N/A   Haze
2:30 PM 78.8 °F 46.4 °F 32% 30.04 in 3.1 mi NW 11.5 mph - N/A   Haze
3:00 PM 78.8 °F 46.4 °F 32% 30.04 in 3.1 mi WNW 11.5 mph - N/A   Haze
3:30 PM 78.8 °F 46.4 °F 32% 30.04 in 3.1 mi West 11.5 mph - N/A   Haze
4:00 PM 78.8 °F 48.2 °F 34% 30.01 in 3.1 mi WNW 10.4 mph - N/A   Haze
4:30 PM 78.8 °F 48.2 °F 34% 30.01 in 3.1 mi WNW 10.4 mph - N/A   Haze
5:00 PM 78.8 °F 48.2 °F 34% 30.01 in 3.1 mi WNW 11.5 mph - N/A   Haze
5:30 PM 77.0 °F 50.0 °F 39% 30.01 in 3.1 mi NW 10.4 mph - N/A   Haze
6:00 PM 75.2 °F 51.8 °F 44% 30.01 in 3.1 mi NW 9.2 mph - N/A   Haze
6:30 PM 73.4 °F 51.8 °F 47% 30.01 in 3.1 mi NW 9.2 mph - N/A   Haze
7:00 PM 71.6 °F 53.6 °F 53% 30.01 in 3.1 mi West 6.9 mph - N/A   Haze
7:30 PM 68.0 °F 55.4 °F 64% 30.01 in 2.8 mi West 4.6 mph - N/A   Haze
8:00 PM 68.0 °F 55.4 °F 64% 30.01 in 2.8 mi WNW 4.6 mph - N/A   Haze
8:30 PM 68.0 °F 55.4 °F 64% 30.01 in 2.2 mi WNW 6.9 mph - N/A   Haze
9:00 PM 68.0 °F 55.4 °F 64% 30.01 in 2.2 mi NW 8.1 mph - N/A   Haze
9:30 PM 68.0 °F 55.4 °F 64% 30.04 in - NW 5.8 mph - N/A   Haze
10:00 PM 68.0 °F 55.4 °F 64% 30.04 in - NW 6.9 mph - N/A   Haze
10:30 PM 68.0 °F 55.4 °F 64% 30.04 in - NW 6.9 mph - N/A   Haze
11:00 PM 64.4 °F 55.4 °F 73% 30.01 in - NW 3.5 mph - N/A   Haze